#timestamp,LO_Frequency,Hit,StdDev 
1568926815.7,286046999.5,N
1568926835.5,286046996.5,N
1568926855.4,286046999.2,N
1568926875.2,286046999.2,N
1568926895.0,286046998.7,N
1568926895.9,286046998.7,N
1568926915.8,286047000.7,N
1568926935.6,286047001.0,N
1568926955.5,286047001.1,N
1568926975.3,286047000.6,N
1568926995.1,286047000.9,N
1568927015.9,286047002.8,N
1568927035.7,286047000.7,N
1568927055.6,286046999.4,N
1568927075.4,286046998.7,N
1568927095.2,286046999.2,N
1568927115.1,286046998.4,N
1568927116.0,286046998.4,N
1568927135.8,286047000.9,N
1568927155.7,286046999.4,N
1568927175.5,286046999.0,N
1568927195.3,286046998.1,N
1568927215.2,286046998.5,N
1568927235.9,286046998.1,N
1568927255.7,286047001.2,N
1568927275.6,286046998.7,N
1568927295.4,286046998.9,N
1568927315.3,286047001.1,N
1568927335.1,286046998.4,N
1568927336.0,286046998.4,N
1568927355.8,286046998.5,N
1568927375.7,286047000.0,N
1568927395.5,286046998.7,N
1568927415.4,286046999.5,N
1568927435.2,286046996.5,N
1568927455.0,286046997.0,N
1568927455.9,286046997.0,N
1568927475.8,286046997.1,N
1568927495.6,286047001.2,N
1568927515.5,286046999.9,N
1568927535.3,286046999.8,N
1568927555.1,286047002.3,N
1568927575.9,286047000.3,N
1568927595.7,286047000.2,N
1568927615.5,286047000.0,N
1568927635.4,286047002.1,N
1568927655.2,286047002.0,N
1568927675.1,286047004.3,N
1568927676.0,286047004.3,N
1568927695.8,286047003.9,N
1568927715.6,286047001.3,N
1568927735.5,286047004.4,N
1568927755.3,286047002.1,N
1568927775.1,286046999.7,N
1568927795.9,286047002.2,N
1568927815.7,286047002.7,N
1568927835.6,286047002.2,N
1568927855.4,286047000.0,N
1568927875.2,286047002.6,N
1568927895.1,286047001.8,N
1568927896.0,286047001.8,N
1568927915.8,286047000.2,N
1568927935.7,286047000.7,N
1568927955.5,286046998.3,N
1568927975.3,286047000.0,N
1568927995.2,286047002.5,N
1568928015.0,286047002.3,N
1568928015.9,286047002.3,N
1568928035.8,286047001.3,N
1568928055.6,286047002.5,N
1568928075.4,286047002.3,N
1568928095.3,286047002.3,N
1568928115.1,286047001.6,N
1568928135.8,286047002.1,N
1568928155.7,286047003.9,N
1568928175.5,286047001.7,N
1568928195.4,286047001.9,N
1568928215.2,286047002.0,N
1568928235.0,286047002.0,N
1568928235.9,286047002.0,N
1568928255.8,286047002.5,N
1568928275.6,286047002.2,N
1568928295.4,286047001.3,N
1568928315.3,286047001.9,N
1568928335.1,286047001.5,N
1568928355.9,286047003.4,Y
1568928375.7,286047002.5,P
1568928395.5,286047001.4,P
1568928415.2,286046999.7,N
1568928435.1,286047000.2,N
1568928436.0,286047000.2,N
1568928455.8,286047002.4,N
1568928475.7,286047002.2,N
1568928495.5,286047002.4,N
1568928515.3,286046999.8,N
1568928535.2,286047000.3,N
1568928555.0,286047000.3,N
1568928555.9,286047000.3,N
1568928575.7,286047001.0,N
1568928595.6,286047000.9,N
1568928615.4,286047002.8,N
1568928635.3,286047001.9,N
1568928655.1,286047003.6,Y
1568928675.8,286047001.7,P
1568928695.7,286047002.5,P
1568928715.5,286046999.9,N
1568928735.4,286047001.1,N
1568928755.2,286046998.4,N
1568928775.0,286046998.5,N
1568928775.9,286046998.5,N
1568928795.8,286046998.3,N
1568928815.6,286046999.2,N
1568928835.4,286046996.6,N
1568928855.3,286046999.5,N
1568928875.1,286046998.1,N
1568928895.9,286046998.7,N
1568928915.7,286046998.7,N
1568928935.5,286046998.1,N
1568928955.4,286047000.8,N
1568928975.2,286047000.9,N
1568928995.1,286047001.0,N
1568928996.0,286047011.9,Y
1568929015.8,286047002.3,P
1568929035.7,286047000.4,N
1568929055.5,286046998.5,N
1568929075.3,286046998.1,N
1568929095.2,286047000.7,N
1568929115.9,286047000.5,N
1568929135.7,286047001.2,N
1568929155.6,286046999.9,N
1568929175.4,286047000.7,N
1568929195.3,286047000.8,N
1568929215.1,286047000.8,N
1568929216.0,286047000.8,N
1568929235.8,286047002.4,N
1568929255.7,286047002.8,N
1568929275.5,286046999.7,N
1568929295.3,286047000.2,N
1568929315.2,286047002.8,N
1568929335.0,286047002.8,N
1568929335.9,286047002.8,N
1568929355.8,286047000.2,N
1568929375.6,286047002.8,N
1568929395.4,286046999.7,N
1568929415.3,286047003.5,N
1568929435.1,286047003.5,N
1568929455.9,286047005.5,Y
1568929475.7,286047004.4,P
1568929495.5,286047001.4,N
1568929515.4,286047003.7,N
1568929535.2,286047002.9,N
1568929555.0,286047003.3,N
1568929555.9,286047003.3,N
1568929575.8,286047002.9,N
1568929595.6,286047003.6,Y
1568929615.5,286047000.1,P
1568929635.3,286047002.3,N
1568929655.1,286047002.2,N
1568929675.9,286047002.0,N
1568929695.7,286047001.8,N
1568929715.6,286047004.2,Y
1568929735.4,286046999.9,P
1568929755.2,286047000.6,N
1568929775.1,286046998.5,N
1568929776.0,286046998.5,N
1568929795.8,286047000.9,N
1568929815.7,286047001.0,N
1568929835.5,286047000.9,N
1568929855.3,286047000.5,N
1568929875.2,286046998.5,N
1568929895.0,286046998.3,N
1568929895.9,286046998.3,N
1568929915.8,286046998.7,N
1568929935.6,286046998.8,N
1568929955.4,286046997.0,N
1568929975.3,286046999.5,N
1568929995.1,286046999.3,N
1568930015.9,286046999.2,N
1568930035.7,286046996.5,N
1568930055.5,286046999.6,N
1568930075.4,286046999.0,N
1568930095.2,286046996.6,N
1568930115.0,286046999.3,N
1568930115.9,286046999.3,N
1568930135.8,286046998.9,N
1568930155.6,286046998.9,N
1568930175.5,286046996.7,N
1568930195.3,286046999.6,N
1568930215.1,286046996.8,N
1568930235.9,286046997.3,N
1568930255.7,286046997.7,N
1568930275.6,286046997.2,N
1568930295.4,286046997.3,N
1568930315.2,286046995.5,Y
1568930335.1,286046995.1,P
1568930336.0,286046995.1,N
1568930355.8,286046996.2,N
1568930375.7,286046995.8,N
1568930395.5,286046993.4,Y
